Location: Camp Creek
(33.9000°N, 111.8167°W)
Time: 14:24:35
(UTC-07:00)

Cosmos 1656 - Visible Passes

Search period start: 24 April 2014 00:00
Search period end: 04 May 2014 00:00
Orbit: 799 x 849 km, 71.1° (Epoch: 23 April)

Date Brightness Start Highest point End Pass type
(mag) Time Alt. Az. Time Alt. Az. Time Alt. Az.
24 Apr 3.6 04:54:18 10° SSW 04:59:42 76° WNW 05:05:08 10° NNE visible
25 Apr 3.6 04:34:07 11° SSW 04:39:23 90° WNW 04:44:50 10° NNE visible
26 Apr 3.7 04:14:56 17° SSW 04:19:06 76° ESE 04:24:31 10° NNE visible
27 Apr 3.9 03:55:39 25° S 03:58:49 64° ESE 04:04:10 10° NNE visible
28 Apr 4.2 03:36:17 32° SSE 03:38:32 53° ESE 03:43:48 10° NNE visible
29 Apr 4.4 03:16:50 36° SE 03:18:16 44° ESE 03:23:24 10° NE visible
29 Apr 5.1 04:58:18 11° WSW 05:02:05 20° WNW 05:06:04 10° NNW visible
30 Apr 4.6 02:57:20 35° ESE 02:58:01 37° ESE 03:02:57 10° NE visible
30 Apr 4.9 04:38:47 16° WSW 04:41:41 24° WNW 04:46:02 10° N visible
01 May 4.9 02:37:45 31° ESE 02:37:46 31° ESE 02:42:28 10° NE visible
01 May 4.7 04:19:13 22° W 04:21:19 28° WNW 04:25:57 10° N visible
02 May 5.3 02:18:08 25° E 02:18:08 25° E 02:21:56 10° NE visible
02 May 4.4 03:59:35 29° W 04:00:57 33° WNW 04:05:49 10° N visible
03 May 5.6 01:58:28 20° E 01:58:28 20° E 02:01:20 10° NE visible
03 May 4.2 03:39:55 37° W 03:40:35 39° WNW 03:45:40 10° N visible
